Weather History for Sioux City, IA

Change the Weather History Date:

Sunday, November 24, 2013

  Actual Average Record
Temperature  
Mean Temperature 22 °F 31 °F  
Max Temperature 37 °F 41 °F 68 °F (1990)
Min Temperature 7 °F 21 °F 0 °F (1893)
Degree Days  
Heating Degree Days 43 34  
Month to date heating degree days 672 660  
Since 1 July heating degree days 1197 1260  
Cooling Degree Days 0 0  
Month to date cooling degree days 0 0  
Year to date cooling degree days 960 869  
Moisture  
Dew Point 11 °F    
Average Humidity 66    
Maximum Humidity 88    
Minimum Humidity 43    
Precipitation  
Precipitation 0.00 in 0.04 in 1.74 in (2001)
Month to date precipitation 1.09 1.07  
Year to date precipitation 26.55 26.70  
Snow  
Snow 0.00 in 0.20 in 6.80 in (1903)
Month to date snowfall 0.9 3.0  
Since 1 July snowfall 0.9 4.0  
Since 1 September snowfall 0.9 4.0  
Snow Depth 0.00 in    
Sea Level Pressure  
Sea Level Pressure 30.45 in    
Wind  
Wind Speed 15 mph (South)    
Max Wind Speed 25 mph    
Max Gust Speed 32 mph    
Visibility 10 miles    
Events      
T = Trace of Precipitation, MM = Missing Value Source: NWS Daily Summary

Daily Weather History Graph

Daily Weather History Graph

Search for Another Location

Airport:

Trip Planner

Search our weather history database for the weather conditions in past years. The results will help you decide how hot, cold, wet, or windy it might be!

Date:

Astronomy

Nov. 24, 2013 Rise Set
Actual Time 7:27 AM CST 4:56 PM CST
Civil Twilight 6:56 AM CST 5:27 PM CST
Nautical Twilight 6:22 AM CST 6:02 PM CST
Astronomical Twilight 5:48 AM CST 6:35 PM CST
Moon 11:27 PM CST (11/24) 12:12 PM CST (11/24)
Length of Visible Light 10h 30m
Length of Day
9h 29m
Waning Gibbous, 60% of the Moon is Illuminated
Nov 24
Waning Gibbous
Nov 25
Last Quarter
Dec 2
New
Dec 9
First Quarter
Dec 17
Full

Hourly Weather History & Observations

Time (CST) Temp. Windchill Dew Point Humidity Pressure Visibility Wind Dir Wind Speed Gust Speed Precip Events Conditions
12:52 AM 7.0 °F -3.3 °F 3.0 °F 84% 30.77 in 10.0 mi SE 5.8 mph - N/A   Clear
1:52 AM 7.0 °F -4.5 °F 1.9 °F 80% 30.74 in 10.0 mi ESE 6.9 mph - N/A   Clear
2:52 AM 12.0 °F 1.5 °F 3.9 °F 70% 30.71 in 10.0 mi SSE 6.9 mph - N/A   Clear
3:52 AM 10.9 °F 1.4 °F 3.9 °F 73% 30.71 in 10.0 mi ESE 5.8 mph - N/A   Clear
4:52 AM 10.0 °F 0.4 °F 3.9 °F 76% 30.68 in 10.0 mi SE 5.8 mph - N/A   Clear
5:52 AM 12.9 °F -0.2 °F 6.1 °F 74% 30.65 in 10.0 mi South 10.4 mph - N/A   Clear
6:52 AM 14.0 °F 2.0 °F 5.0 °F 67% 30.63 in 10.0 mi South 9.2 mph - N/A   Clear
7:52 AM 16.0 °F 3.6 °F 6.1 °F 65% 30.62 in 10.0 mi South 10.4 mph - N/A   Clear
8:52 AM 18.0 °F 4.2 °F 8.1 °F 65% 30.61 in 10.0 mi South 13.8 mph 19.6 mph N/A   Clear
9:52 AM 21.9 °F 7.3 °F 9.0 °F 58% 30.58 in 10.0 mi South 18.4 mph - N/A   Clear
10:52 AM 25.0 °F 10.9 °F 10.9 °F 55% 30.55 in 10.0 mi South 19.6 mph - N/A   Clear
11:52 AM 28.9 °F 16.1 °F 12.9 °F 51% 30.48 in 10.0 mi South 19.6 mph - N/A   Clear
12:52 PM 33.1 °F 21.5 °F 14.0 °F 46% 30.43 in 10.0 mi South 19.6 mph - N/A   Clear
1:52 PM 35.1 °F 23.8 °F 15.1 °F 44% 30.38 in 10.0 mi South 20.7 mph 28.8 mph N/A   Clear
2:52 PM 36.0 °F 24.2 °F 16.0 °F 44% 30.34 in 10.0 mi SSW 24.2 mph - N/A   Clear
3:52 PM 36.0 °F 25.6 °F 15.1 °F 43% 30.30 in 10.0 mi South 18.4 mph - N/A   Clear
4:52 PM 32.0 °F 22.1 °F 15.1 °F 50% 30.28 in 10.0 mi South 13.8 mph - N/A   Clear
5:52 PM 30.9 °F 19.8 °F 14.0 °F 50% 30.28 in 10.0 mi South 16.1 mph - N/A   Clear
6:52 PM 28.9 °F - 14.0 °F 54% 30.26 in 10.0 mi North - - N/A   Clear
7:52 PM 28.9 °F 16.5 °F 12.9 °F 51% 30.24 in 10.0 mi South 18.4 mph - N/A   Mostly Cloudy
8:52 PM 28.9 °F 16.5 °F 14.0 °F 54% 30.22 in 10.0 mi South 18.4 mph 28.8 mph N/A   Overcast
9:52 PM 30.0 °F 17.5 °F 15.1 °F 54% 30.21 in 10.0 mi South 19.6 mph - N/A   Mostly Cloudy
10:52 PM 30.0 °F 17.9 °F 15.1 °F 54% 30.21 in 10.0 mi SSW 18.4 mph - N/A   Mostly Cloudy
11:52 PM 30.0 °F 17.5 °F 16.0 °F 56% 30.19 in 10.0 mi SSW 19.6 mph 29.9 mph N/A   Overcast